Wind_Speed
10 9 11 13 14 13 13 14 15 15 14 15 16 17 18 18 19 19 18 17 15 15 16 17 17 17 15 14 16 17 18 18 17 16 17 18 18 17 17 18 19 19 20 22 24 25 22 20 20 24 25 23 21 22 23 22 21 21 19 19 19 19 21 20 13 11 16 17 14 13 12 11 14 15 14 15 15 17 21 25 27 27 26 26 24
13 11 11 13 15 14 13 15 15 15 15 16 17 17 17 18 18 19 19 18 17 16 16 16 16 17 17 16 16 17 18 18 17 17 18 19 19 18 18 19 20 20 19 21 23 23 22 22 19 19 23 25 23 21 22 22 23 23 23 21 22 23 23 23 19 14 14 16 16 15 14 14 15 16 15 16 17 17 18 21 24 25 25 25 24
17 13 11 12 13 13 14 14 14 14 15 17 19 20 19 17 16 18 19 19 18 17 16 15 14 16 17 17 17 17 17 17 16 17 18 19 19 19 19 20 20 21 20 21 21 19 20 23 21 17 18 22 24 23 21 22 22 23 23 21 20 21 24 25 23 18 15 17 18 17 17 16 17 17 16 17 18 18 18 19 20 21 23 24 25
18 16 14 14 13 12 12 12 13 14 13 14 17 19 19 19 18 19 19 19 18 18 17 16 15 15 15 16 17 17 18 17 17 17 18 19 20 20 20 20 21 20 21 22 20 18 18 19 19 18 18 18 19 20 19 20 21 20 20 18 16 16 18 22 24 22 19 17 18 19 19 18 18 18 18 18 19 20 21 20 19 20 21 24 26
19 17 16 16 14 12 12 13 14 15 14 13 14 15 15 16 18 19 20 21 20 19 19 18 17 16 15 15 16 17 17 17 17 17 18 18 19 20 21 21 21 21 21 21 20 18 17 18 21 23 22 21 21 20 18 17 18 17 16 15 13 12 12 14 18 21 21 20 20 20 20 19 19 18 18 18 18 20 22 22 21 20 20 22 24
20 18 17 17 17 14 11 11 14 16 17 16 14 13 14 14 15 18 19 20 21 20 20 18 16 16 16 16 16 17 18 17 17 17 18 18 18 19 21 21 21 21 21 22 21 18 16 18 22 22 20 20 22 22 19 17 17 17 16 15 13 11 11 10 12 17 21 24 24 23 21 21 21 20 18 18 18 19 21 22 22 21 21 21 22
19 21 20 18 18 17 14 13 15 16 18 18 16 16 17 15 15 16 17 18 18 19 19 18 15 15 16 16 17 18 18 18 19 19 19 19 19 19 20 21 22 22 22 22 23 21 18 17 18 19 19 20 21 23 20 19 19 19 19 19 17 15 14 12 11 14 19 24 25 25 24 23 23 22 20 18 18 18 19 21 22 23 23 22 22
16 20 22 21 19 17 15 16 17 18 18 18 17 17 17 16 15 15 14 15 16 16 17 17 16 14 15 16 16 17 18 19 20 21 21 21 21 20 21 23 23 23 22 22 23 24 23 21 19 19 21 23 24 25 22 19 20 21 21 21 21 20 18 16 13 13 16 21 24 25 25 23 22 22 19 17 16 17 18 20 22 24 24 23 23
13 16 20 21 21 18 14 15 17 18 19 19 19 18 18 17 16 15 14 14 15 14 13 14 14 14 16 18 18 18 19 20 21 22 21 21 21 21 22 24 25 24 23 22 22 24 25 25 24 23 24 26 27 25 22 20 20 22 22 22 22 22 21 18 16 13 13 17 22 22 21 20 20 20 19 18 19 19 19 19 21 23 23 24 25
13 16 18 19 20 19 16 15 17 18 19 20 20 20 20 20 18 18 16 15 15 14 11 12 15 19 22 22 20 19 20 21 22 22 22 22 22 22 23 25 26 26 25 23 22 23 24 25 27 27 27 27 27 25 23 21 21 22 23 22 22 23 22 21 19 15 11 12 17 19 17 17 21 21 21 22 22 22 20 18 20 22 20 20 22
16 18 19 18 19 18 16 16 18 20 20 20 20 19 20 20 20 19 18 17 15 13 11 12 17 21 23 24 22 22 22 22 21 20 21 22 22 23 24 25 26 27 26 25 24 23 23 24 25 27 27 27 26 26 24 22 22 23 24 23 23 24 25 24 24 21 15 11 13 15 16 18 22 24 24 24 23 22 21 20 21 21 18 15 16
20 20 20 19 19 18 15 15 19 21 20 20 20 19 18 19 20 20 20 18 16 13 11 14 19 21 22 23 24 24 25 24 22 20 20 20 21 22 24 25 25 26 26 26 26 25 24 24 25 25 26 26 25 24 23 23 22 23 24 24 24 25 26 27 26 24 19 14 13 14 15 18 20 22 23 22 22 22 21 21 21 21 20 18 17
22 22 22 20 18 17 15 16 18 19 19 20 21 19 18 18 18 20 20 19 17 14 11 14 19 22 22 22 24 25 25 25 24 22 22 21 21 22 25 26 26 27 27 27 27 27 27 26 26 25 26 26 25 24 23 22 21 21 22 23 24 24 24 26 27 26 23 19 17 17 19 19 19 20 20 19 19 19 19 20 21 21 21 22 23
22 23 22 21 19 18 17 17 18 18 18 19 19 19 19 18 18 18 20 20 18 15 13 14 17 20 21 22 23 24 24 22 21 21 21 22 23 23 24 26 26 27 27 27 28 28 29 29 28 28 27 27 27 26 25 23 21 19 19 20 23 24 24 25 27 28 26 24 23 23 24 22 21 21 20 19 19 18 19 20 21 21 22 24 26
23 22 22 22 22 21 20 19 18 18 18 18 18 19 20 20 19 19 19 20 19 18 17 16 17 18 19 20 22 24 24 22 21 21 21 21 23 24 25 25 25 25 26 27 28 29 30 30 30 29 29 29 29 28 26 25 23 21 20 21 23 25 26 27 27 27 27 28 28 28 28 26 25 24 24 23 22 22 21 21 21 22 23 24 25
23 23 23 23 23 23 22 21 19 19 18 18 18 19 19 20 20 20 20 21 20 20 20 20 20 20 20 19 21 23 24 23 22 22 21 20 20 22 24 26 26 26 28 28 28 28 30 31 30 29 29 30 30 29 26 24 24 23 24 25 25 25 26 27 25 24 24 25 26 28 29 29 27 25 25 25 25 24 23 22 22 21 21 20 22
23 23 24 24 24 24 24 22 21 20 18 18 18 19 19 20 20 20 21 22 21 20 20 20 21 22 21 20 20 21 22 22 21 21 20 19 19 20 24 26 25 26 28 29 29 30 32 32 30 30 30 30 29 27 24 24 26 27 27 28 27 26 27 27 26 25 24 24 25 25 24 24 22 21 21 21 22 22 21 21 23 22 19 16 16
21 22 24 25 25 25 25 24 22 21 19 18 18 19 19 19 19 19 20 22 21 20 19 19 20 22 22 21 20 20 21 21 20 20 19 19 19 21 23 25 25 25 28 30 30 31 33 32 30 31 33 32 29 26 23 24 28 29 28 27 25 26 29 30 28 26 25 24 23 22 21 20 20 21 21 21 21 22 22 24 25 23 20 16 16
20 22 24 24 25 25 25 25 24 22 21 20 19 18 18 18 19 19 20 21 22 22 21 20 21 22 22 22 21 20 21 21 20 20 20 20 20 21 22 23 25 27 29 30 31 31 32 33 32 32 33 33 31 28 25 27 30 30 27 26 26 28 31 29 26 25 24 23 22 22 21 21 22 22 22 22 23 24 25 27 27 25 23 22 20
20 21 22 22 23 25 26 26 26 25 24 23 21 19 18 19 19 20 21 21 22 23 23 22 23 23 23 23 22 21 21 20 19 19 20 20 19 20 22 24 25 28 29 29 28 28 29 32 33 33 33 32 29 26 25 28 31 29 27 27 29 31 30 27 26 26 25 23 23 22 21 21 21 22 22 23 22 23 24 25 25 25 25 25 24
19 19 20 20 22 24 25 26 27 27 26 24 22 20 19 18 18 19 21 22 22 23 24 24 24 25 24 24 24 23 21 21 20 19 18 19 19 19 22 25 26 28 29 27 25 25 27 30 32 31 30 29 29 26 26 30 31 29 29 30 31 29 27 26 27 26 24 24 23 22 22 22 22 23 23 24 24 24 25 26 26 26 27 27 26
17 18 19 20 21 23 24 25 26 27 27 26 24 23 21 19 18 17 18 20 21 22 23 24 24 25 26 26 26 25 23 21 21 19 17 17 18 19 22 26 27 28 28 27 26 26 27 29 31 29 27 27 27 26 26 29 31 31 32 32 31 28 26 25 24 23 23 23 23 22 23 23 23 24 25 26 27 28 29 30 30 29 30 32 31
17 18 19 20 21 21 23 24 25 26 27 27 26 25 24 21 18 17 17 18 20 21 22 22 23 24 26 27 27 26 24 22 21 20 19 18 18 19 22 24 26 27 29 29 28 28 28 29 29 29 27 26 26 24 23 25 28 30 32 33 32 29 27 26 24 22 22 22 22 23 24 24 25 26 27 28 29 30 31 31 30 30 30 32 32
17 17 18 19 20 21 23 24 25 25 26 26 26 26 26 23 20 19 19 19 19 19 19 20 20 21 23 26 27 26 25 24 23 22 20 19 18 19 21 22 23 26 30 31 30 28 28 27 26 25 25 25 25 23 21 22 24 26 29 30 31 30 29 28 27 24 23 22 22 23 25 26 27 27 28 29 30 30 30 30 30 29 30 31 32
17 17 18 19 21 22 23 24 25 25 25 25 25 26 26 25 22 21 21 20 19 18 17 18 19 20 21 24 26 27 27 26 25 24 22 21 20 19 19 21 22 23 27 31 31 29 29 29 27 25 24 24 24 23 22 21 22 25 27 28 29 30 30 30 28 25 23 23 24 25 27 28 28 28 28 28 28 28 29 29 30 30 30 30 32
18 18 19 20 21 22 23 24 24 24 25 25 25 25 24 24 23 23 22 20 19 19 18 18 18 18 20 22 25 28 28 27 26 24 22 22 21 19 18 19 20 20 23 27 29 30 30 30 28 26 25 25 25 24 23 22 22 24 27 28 29 30 30 30 28 26 26 26 27 28 30 30 28 28 27 27 28 29 29 29 30 30 29 29 29
18 19 19 20 22 23 23 23 23 24 25 25 25 25 25 23 23 22 22 20 20 19 19 19 18 17 19 21 24 26 27 27 27 25 22 21 21 20 18 18 18 19 21 24 26 28 29 29 29 28 27 26 25 25 25 24 23 23 25 25 26 26 26 26 26 27 29 29 29 30 30 29 27 27 27 27 28 29 29 29 28 28 28 27 26
18 19 20 21 22 23 23 23 23 24 25 25 25 25 25 24 23 23 23 22 21 21 20 20 20 20 20 21 23 24 25 26 26 25 21 18 18 19 19 19 19 19 19 20 22 22 23 23 25 25 24 23 23 22 22 22 23 23 24 25 24 21 19 20 22 25 27 28 28 28 28 27 27 28 28 27 28 29 29 28 27 28 28 25 23
20 20 20 21 23 23 23 23 23 24 24 25 25 25 24 24 24 25 26 24 22 22 23 23 24 24 24 23 22 22 24 26 26 24 21 19 19 19 18 18 18 17 17 17 15 12 14 16 15 16 18 20 20 20 20 20 20 22 24 26 25 23 21 21 23 27 29 28 28 29 28 27 28 28 26 25 27 29 28 27 27 27 26 24 23
19 20 21 22 23 23 22 23 23 23 23 24 25 27 27 26 24 24 25 25 23 21 22 23 24 25 26 27 25 23 25 29 29 26 24 23 22 21 20 20 20 17 16 14 9 4 10 15 13 13 15 16 16 17 17 15 15 18 19 20 21 22 23 25 27 30 30 30 30 31 29 28 28 26 25 25 27 28 28 28 28 26 24 23 23
18 20 21 22 22 22 21 22 22 22 22 22 23 25 27 29 28 25 24 24 24 22 21 21 21 22 23 25 25 24 26 27 26 24 23 21 19 18 19 21 21 19 16 13 7 4 9 14 14 13 14 13 13 15 15 13 16 20 20 17 16 17 20 23 27 29 30 29 30 30 29 28 28 27 26 27 28 27 26 26 26 26 25 25 24
18 20 22 23 22 21 20 20 20 21 21 22 22 22 23 25 28 29 28 26 24 22 20 19 19 19 19 21 22 23 23 23 21 21 21 19 16 14 14 15 18 19 16 12 9 9 11 13 14 13 13 13 16 17 16 17 20 22 18 16 17 18 19 21 23 25 28 29 29 29 29 29 30 30 29 29 28 26 24 24 24 25 26 25 25
19 21 22 22 21 21 21 21 20 20 21 21 21 21 20 21 24 28 30 29 26 23 21 19 19 20 20 19 20 21 21 21 20 20 20 18 16 14 13 12 13 15 14 12 12 12 13 13 14 14 13 15 18 18 17 18 21 20 17 17 21 24 24 22 21 22 26 29 29 30 30 30 30 30 30 29 27 26 25 24 24 24 24 23 23
21 21 21 21 20 21 21 21 20 20 20 21 20 20 20 21 22 24 26 26 25 23 22 22 21 21 21 20 20 19 19 19 19 18 18 18 18 17 14 11 11 12 13 13 15 15 14 13 14 15 17 18 19 19 19 21 22 21 20 22 25 25 24 23 22 22 23 24 26 28 30 31 31 30 29 28 27 27 27 26 25 24 24 23 23
22 21 21 21 20 21 22 21 20 20 20 20 20 20 19 21 22 23 24 24 23 22 22 23 23 22 22 22 21 19 17 17 17 17 17 19 20 16 12 10 10 11 13 14 16 17 16 14 15 17 19 20 20 20 20 21 21 20 21 22 21 20 21 24 25 23 21 22 24 27 27 26 26 26 26 27 26 25 24 25 24 24 24 24 23
21 21 21 21 21 22 23 22 20 19 19 19 20 21 20 20 21 22 24 25 24 22 21 22 23 23 23 23 23 21 19 17 16 18 19 20 19 13 9 10 10 10 11 14 16 15 14 15 16 17 18 19 20 19 20 20 20 20 19 18 17 17 21 24 23 21 21 23 26 26 23 21 20 19 19 20 21 20 21 22 22 21 22 22 20
21 20 21 22 22 22 23 22 20 19 19 19 21 22 20 19 20 21 23 24 23 23 24 25 25 25 28 29 27 22 18 17 16 17 18 18 16 11 8 8 8 8 8 11 13 14 14 15 16 17 18 19 20 19 19 19 18 17 15 16 18 20 21 21 20 19 21 24 26 26 24 24 23 18 13 11 14 18 21 23 23 22 22 20 18
20 20 21 22 22 22 21 20 19 19 19 18 20 20 19 19 20 21 22 23 22 22 24 25 25 26 30 35 31 22 16 16 17 16 16 15 13 11 9 8 8 8 8 9 11 12 13 14 15 16 16 17 18 17 17 16 15 14 13 14 16 16 15 15 16 18 20 22 23 23 23 24 23 18 13 12 14 18 20 21 22 22 21 19 19
21 20 21 21 21 20 19 18 18 18 19 19 19 19 19 20 21 21 22 22 22 22 23 23 24 26 31 36 35 26 20 20 22 21 20 19 15 12 10 10 10 10 9 10 10 11 12 13 12 13 13 13 13 14 12 10 10 10 10 10 10 9 8 9 11 12 14 16 18 19 20 21 21 19 16 16 18 19 20 21 22 21 20 19 20
20 21 21 20 20 19 17 16 17 19 19 20 20 19 20 20 20 20 21 21 21 21 22 22 23 26 31 35 34 28 23 23 24 25 24 24 23 22 22 21 21 20 19 16 12 8 8 8 8 9 8 8 8 8 6 4 4 3 3 3 2 1 1 2 3 5 6 8 10 12 14 16 18 17 16 16 18 19 20 21 21 20 19 20 21
19 20 21 19 18 17 16 16 18 19 19 19 19 19 19 19 19 19 19 20 20 20 21 22 23 26 30 33 32 28 25 25 26 26 25 24 25 26 26 26 26 26 26 25 22 18 15 13 12 10 9 8 7 8 8 8 8 7 7 7 6 6 6 5 3 2 2 3 4 7 8 10 13 14 15 15 16 17 18 19 19 19 19 20 20
17 19 20 18 16 16 15 16 17 18 18 19 19 19 18 18 18 18 18 19 20 20 21 22 24 25 29 32 31 29 27 26 26 26 26 26 27 27 27 28 28 28 27 28 27 25 24 23 23 22 20 18 16 15 14 14 14 14 12 11 11 10 9 8 7 7 6 5 5 6 7 8 9 11 12 13 14 15 17 18 18 18 18 18 19
15 18 19 17 15 15 15 16 17 18 18 18 18 18 18 17 17 17 17 18 19 20 21 23 24 25 28 31 31 30 28 27 26 26 26 27 27 27 29 30 29 28 28 29 29 28 28 27 27 26 25 22 20 18 18 17 18 18 16 15 14 14 14 13 12 11 10 9 9 9 10 10 10 10 11 13 14 15 16 17 18 19 19 20 20
16 19 19 18 16 15 15 16 17 18 19 19 18 18 18 17 17 18 18 17 18 19 21 22 23 25 27 29 30 31 30 28 27 26 26 27 28 28 29 29 28 27 28 28 27 27 28 29 29 28 26 24 22 21 20 20 20 20 20 19 17 17 18 18 17 15 13 12 12 13 14 15 14 13 12 12 13 15 16 17 18 19 20 20 20
17 19 19 18 17 15 15 16 17 18 19 19 19 18 18 18 17 18 19 18 18 18 20 21 22 24 25 27 28 29 29 29 27 26 26 27 28 28 28 27 26 26 27 26 25 23 23 24 28 29 28 26 24 23 22 22 21 19 19 20 19 19 19 20 19 17 15 14 14 15 16 17 17 16 15 14 14 16 18 19 19 19 20 20 19
16 17 17 18 17 15 14 16 17 17 18 18 18 17 17 17 17 18 19 19 18 17 18 20 21 22 23 24 25 26 27 27 28 27 27 27 27 27 28 27 26 25 25 24 23 22 19 18 23 28 29 28 27 25 24 24 22 20 19 19 20 20 20 21 21 20 18 16 16 17 17 18 18 18 17 16 16 17 19 20 20 20 20 20 20
16 16 16 17 17 16 16 16 16 16 17 18 16 16 16 17 18 18 19 20 19 17 18 20 21 21 21 22 23 23 24 26 27 27 27 28 27 26 26 26 26 26 25 24 23 22 20 18 19 24 28 30 29 27 25 24 23 22 20 20 21 22 22 22 22 22 20 19 17 17 18 17 18 18 17 17 17 17 18 20 21 21 22 22 21
17 16 14 14 15 16 17 17 16 16 16 17 16 14 14 16 18 18 19 21 21 20 19 20 20 19 19 20 20 21 21 22 25 27 27 28 28 28 27 26 24 24 24 24 23 22 21 19 19 21 25 29 31 30 27 25 24 23 22 21 21 22 22 22 22 22 21 19 16 16 17 17 17 18 17 16 16 16 17 18 20 22 23 23 23
17 15 14 12 13 15 17 17 16 15 15 15 15 14 13 16 18 19 19 21 22 22 22 21 20 19 19 19 19 19 19 19 22 24 26 26 25 26 27 27 26 24 23 23 23 22 21 20 19 19 22 26 30 30 28 26 24 23 22 22 22 21 20 20 20 21 21 18 15 15 16 16 17 18 18 17 18 18 16 16 18 21 22 23 23
15 14 13 11 11 12 15 16 16 15 15 15 16 15 16 17 19 19 18 19 20 21 22 21 20 19 18 18 17 17 18 18 19 21 23 24 23 23 24 25 26 26 24 23 23 23 22 21 20 18 19 23 28 30 28 26 25 24 22 22 22 21 20 19 18 18 19 17 15 14 15 17 17 18 18 19 19 19 18 17 18 20 21 22 23
14 13 13 11 10 11 13 15 16 16 17 17 17 18 18 18 18 18 18 18 19 20 20 20 20 19 19 18 17 16 16 17 18 19 21 22 22 23 23 22 23 24 24 23 23 23 22 21 21 20 19 20 25 29 29 27 26 25 23 22 23 23 21 20 19 17 16 16 15 15 16 17 17 17 17 18 18 18 18 18 19 20 21 22 22
Wind_Direction
359 327 305 294 285 287 291 284 277 273 268 264 262 265 268 267 270 272 271 273 269 259 255 253 250 249 245 237 230 228 230 233 236 234 229 229 233 238 241 238 239 241 241 244 246 243 245 254 256 249 245 248 252 250 247 248 247 242 241 239 239 245 242 227 219 238 243 243 245 244 245 246 241 242 246 245 238 235 237 239 241 244 247 251 251
8 341 315 293 280 290 314 321 314 297 284 279 272 268 269 269 269 272 273 276 275 271 269 264 257 255 253 246 235 231 232 233 235 233 228 228 232 236 239 236 235 238 241 245 243 242 247 251 254 254 247 245 250 252 249 247 245 242 242 244 247 252 249 235 224 228 237 240 241 238 237 239 242 244 247 246 241 238 236 237 239 242 247 250 249
13 1 346 320 309 317 323 318 310 296 284 283 282 278 279 282 278 275 277 279 278 277 278 275 269 264 261 254 244 238 239 238 236 234 230 230 232 234 235 232 234 237 240 245 243 243 249 248 246 255 260 253 248 251 255 250 245 243 243 246 251 256 254 242 230 225 232 240 241 238 236 239 244 246 247 249 248 242 236 235 239 243 247 249 248
12 7 356 345 346 348 338 317 301 298 294 287 285 287 293 298 295 287 283 282 280 279 281 282 279 273 267 260 253 248 246 245 243 239 237 237 236 235 233 231 233 237 240 245 245 242 251 259 257 257 267 272 261 255 255 252 246 245 247 248 251 258 257 244 235 233 236 239 240 241 242 244 246 248 247 249 251 248 243 242 245 246 247 248 249
2 1 352 352 360 2 356 344 328 321 320 310 297 295 298 297 294 291 286 284 283 280 279 282 282 279 276 271 264 260 255 250 247 244 242 243 243 240 237 234 235 239 242 245 245 239 241 256 260 252 254 270 276 268 257 250 245 244 248 251 252 261 264 255 248 244 239 238 241 244 245 245 246 248 249 248 249 250 247 245 246 247 247 248 251
358 2 358 356 1 9 13 0 346 339 337 333 326 319 314 304 294 289 284 283 284 280 279 281 282 283 284 282 275 270 265 258 252 250 247 245 246 245 243 240 239 241 244 244 244 239 232 242 252 249 246 257 270 268 259 253 251 247 248 252 256 261 266 271 272 260 246 241 243 244 243 242 240 241 245 247 247 247 245 242 242 244 246 248 251
355 1 3 1 359 4 14 9 359 355 350 347 345 340 335 326 309 294 285 283 284 283 284 284 283 284 286 286 282 276 271 264 257 254 251 247 245 245 245 244 241 241 244 245 245 242 238 239 244 247 247 251 260 264 260 257 257 256 254 255 258 263 266 271 283 280 260 246 241 241 241 239 238 237 239 242 243 245 244 241 240 241 243 246 251
356 356 359 3 360 357 2 6 4 2 359 356 353 348 342 333 320 307 296 290 289 289 290 292 294 293 288 283 278 273 267 261 256 251 247 246 244 241 242 242 241 239 241 244 246 245 244 244 242 244 247 248 252 259 263 262 262 262 262 260 259 262 265 267 274 285 272 250 240 239 238 234 231 232 234 233 232 237 240 240 242 245 247 250 254
3 358 355 358 360 356 352 357 1 1 359 358 354 350 346 341 334 325 314 304 301 301 299 299 298 289 275 266 260 259 257 256 255 252 248 245 242 239 239 240 239 237 236 239 244 246 248 250 249 247 244 242 246 255 264 267 265 263 263 264 262 260 260 262 264 273 274 255 241 236 234 229 225 224 224 224 227 235 241 241 243 248 252 254 255
2 359 355 354 356 356 351 351 356 358 356 354 350 346 344 343 342 338 331 321 314 312 308 295 282 271 265 263 260 259 258 258 260 261 258 255 250 244 240 239 239 238 235 234 237 241 246 250 253 253 249 247 250 255 261 263 263 262 262 263 262 259 257 257 254 254 259 256 244 235 225 223 225 223 222 227 231 236 240 241 243 248 250 252 255
0 355 354 352 351 351 351 351 352 350 350 349 345 340 338 338 339 339 338 335 326 320 312 293 277 269 268 268 266 264 264 262 262 262 262 260 255 249 243 240 239 239 237 235 234 236 240 246 251 254 253 252 253 253 254 256 259 262 264 265 264 260 256 253 249 245 242 247 250 242 229 226 228 226 227 231 233 235 240 242 244 246 245 245 255
356 353 351 350 349 349 348 347 346 343 343 344 341 337 332 330 333 334 333 335 334 326 311 288 278 277 276 275 273 272 271 270 265 260 258 258 254 247 242 240 239 239 239 238 239 238 236 239 245 250 252 252 252 252 250 251 255 259 263 265 264 260 257 254 251 246 242 244 249 249 244 241 238 233 231 233 235 238 242 243 244 246 246 245 248
350 348 347 348 350 352 348 343 341 339 338 339 339 336 328 322 325 328 328 328 327 323 310 286 279 282 284 284 283 282 281 279 274 266 261 261 259 250 244 243 243 243 242 241 241 240 236 234 236 241 246 248 248 248 248 250 253 255 257 260 260 258 256 256 253 250 249 250 251 251 251 252 250 248 244 241 240 241 241 244 247 247 247 247 251
347 345 346 347 349 350 346 342 339 336 333 334 334 334 329 321 318 319 320 320 316 312 307 293 284 283 285 286 288 289 291 291 286 278 269 264 263 259 254 249 246 245 245 245 245 244 240 236 233 234 238 240 240 242 244 247 251 253 254 255 254 251 250 251 251 249 248 248 248 250 253 254 256 259 260 256 250 248 246 248 250 250 252 256 262
344 343 342 342 343 344 343 341 338 335 333 331 329 329 328 324 319 316 314 312 307 302 299 298 294 291 290 290 289 290 294 298 295 288 279 270 265 263 261 257 251 248 248 250 251 250 246 242 238 236 237 239 238 238 239 242 243 246 250 252 249 247 244 244 246 246 246 246 247 251 254 256 258 262 265 264 259 256 256 256 258 261 263 264 266
340 339 337 337 338 339 339 338 337 336 334 330 327 326 324 322 321 317 312 309 304 298 294 295 298 300 299 296 291 290 294 299 297 291 286 279 270 265 262 260 257 253 251 251 253 252 249 245 244 243 243 243 242 240 239 239 238 236 239 241 240 239 239 239 240 243 247 248 250 253 256 258 260 263 265 265 261 260 260 259 259 259 259 260 261
335 334 333 333 334 335 336 335 333 334 333 329 326 324 322 320 320 318 315 311 305 299 296 296 298 301 302 299 295 293 296 300 299 294 288 281 273 268 264 261 256 253 252 253 253 251 249 248 247 247 246 244 244 242 240 237 233 228 226 227 229 232 237 241 243 245 249 251 251 253 254 256 258 259 260 260 259 259 256 252 252 251 251 254 257
333 330 329 330 331 332 332 332 329 329 328 327 325 323 321 319 318 317 314 310 305 301 298 297 297 301 303 302 298 295 297 301 300 295 290 282 273 268 264 259 254 252 253 254 254 252 251 251 249 247 245 244 243 243 239 233 230 225 220 221 227 234 241 244 245 247 250 250 247 245 248 253 256 258 259 258 258 257 251 249 253 252 248 247 252
328 326 325 327 329 329 329 328 326 325 324 323 322 321 319 317 316 314 312 310 307 303 297 291 291 298 303 303 299 295 296 300 299 293 290 285 274 267 261 254 251 252 253 254 255 256 256 256 252 248 246 246 245 243 237 231 229 228 225 224 229 236 241 243 242 245 248 247 244 244 248 254 257 260 261 258 256 255 253 254 256 252 247 247 251
326 324 325 326 326 326 326 326 324 323 322 321 320 318 317 316 315 314 312 311 309 305 301 294 290 294 299 299 298 296 295 298 299 296 291 285 276 265 257 252 250 253 253 252 254 256 258 259 257 252 248 246 243 241 238 235 234 233 232 231 233 238 243 243 241 243 245 246 248 250 253 255 256 256 256 255 253 254 255 256 256 252 249 250 250
325 325 325 325 323 323 324 324 323 322 320 320 318 316 317 317 316 314 313 312 309 306 304 301 295 293 295 296 295 296 296 296 299 300 294 287 278 266 256 252 253 254 255 255 254 255 257 260 261 258 251 244 241 239 241 244 244 242 241 241 243 247 247 244 240 239 242 246 250 251 250 249 249 249 250 252 253 254 256 258 259 258 256 255 252
328 327 325 322 321 321 322 323 322 321 321 320 318 316 318 319 317 316 315 313 310 306 305 303 297 293 294 295 295 296 297 297 298 300 298 290 281 270 260 258 257 255 254 256 256 256 258 261 264 264 258 251 248 246 246 249 250 247 247 249 251 252 249 244 241 240 241 243 244 245 244 244 244 246 249 253 256 258 260 261 263 263 262 261 258
330 327 325 323 323 324 325 325 324 323 323 322 319 318 320 320 318 316 315 312 309 306 306 305 299 295 295 296 295 296 298 299 299 299 299 296 288 276 268 266 264 257 252 253 256 259 262 264 268 269 266 262 259 255 253 253 252 250 251 252 253 252 248 245 244 243 241 239 237 239 240 241 244 248 252 256 260 263 265 266 266 264 263 263 262
332 331 330 328 327 328 328 327 326 325 325 323 320 318 320 320 316 313 312 310 305 302 304 306 303 298 296 296 297 298 300 302 302 300 298 297 294 284 275 272 270 263 257 255 258 260 262 266 269 271 270 268 266 263 258 256 255 254 254 254 254 252 248 246 245 243 240 238 237 238 242 244 247 250 255 260 265 268 269 269 270 269 267 266 265
337 336 334 331 329 329 329 328 327 326 326 324 320 317 318 318 315 312 311 307 302 298 299 303 303 299 296 294 296 299 301 303 304 303 299 297 296 292 283 277 275 272 266 262 262 263 265 268 270 271 272 271 269 266 262 259 259 259 258 258 256 252 246 244 242 239 238 240 240 242 245 248 251 255 261 266 269 269 269 269 270 270 269 268 267
340 337 333 331 331 331 329 327 326 325 325 324 322 319 317 315 313 311 309 304 298 295 296 298 297 295 292 291 292 297 300 301 302 303 302 299 298 298 293 286 282 278 271 265 262 262 264 266 268 270 270 268 266 263 262 263 265 264 262 260 255 248 243 240 237 233 234 239 242 246 250 253 257 262 266 267 266 265 266 268 269 269 270 269 268
336 333 331 330 331 331 328 324 323 323 324 326 324 321 319 316 312 310 308 303 298 295 295 295 293 289 286 286 289 292 295 297 299 300 301 301 300 301 298 293 291 286 280 274 268 264 264 264 266 267 266 264 262 259 258 262 264 262 261 258 248 238 235 235 235 236 238 241 243 248 253 257 261 263 264 263 263 264 266 265 264 266 269 269 266
333 330 330 331 330 328 326 323 322 323 324 325 324 321 319 317 313 308 306 302 297 293 293 292 291 289 286 285 286 288 290 291 293 296 299 301 302 300 293 291 295 298 297 296 291 281 273 270 266 264 262 260 259 257 256 256 255 253 253 253 250 246 243 242 241 242 244 245 247 251 255 258 261 262 261 260 259 261 263 261 258 261 264 264 260
336 332 329 328 327 326 325 324 324 324 324 324 322 320 319 317 312 308 307 305 298 292 291 290 290 291 289 285 283 282 283 286 290 293 294 293 294 293 289 288 296 299 299 304 308 298 284 277 267 261 260 256 255 257 255 251 251 252 252 255 259 261 259 254 250 249 250 250 251 255 257 258 259 259 258 257 257 259 259 256 253 254 256 253 252
338 335 330 326 325 325 325 325 326 326 326 324 323 323 323 323 319 312 310 311 308 301 296 293 293 294 292 290 287 282 282 288 294 295 293 290 288 285 281 282 287 289 292 302 317 307 280 274 261 253 256 250 245 251 252 247 250 257 260 263 267 268 265 260 256 254 255 255 256 257 258 257 257 257 253 252 254 256 255 252 249 247 244 242 245
339 337 331 325 323 326 329 329 329 329 328 327 327 326 326 327 327 324 319 317 316 312 307 302 301 299 295 294 295 293 292 295 299 299 299 297 291 283 278 278 279 278 281 292 297 265 264 270 265 262 266 262 253 254 255 246 244 251 256 258 260 261 260 259 259 258 257 257 257 257 257 255 254 254 252 251 252 253 251 248 245 242 239 239 242
341 337 331 325 328 336 340 338 335 333 333 334 334 332 330 327 328 329 329 326 321 317 313 311 309 306 302 301 302 303 302 302 303 303 303 302 295 286 279 275 273 271 270 273 269 253 249 260 270 274 272 265 258 254 251 245 243 247 252 255 257 255 250 249 254 258 258 257 257 258 258 257 257 256 254 252 251 250 248 245 241 239 239 240 242
341 335 330 331 340 348 346 341 340 339 338 340 340 338 337 335 331 330 331 330 328 325 322 319 316 313 312 312 311 310 310 309 307 305 303 300 295 289 279 266 260 258 252 245 246 246 237 239 253 260 257 254 252 248 248 250 251 249 248 252 258 261 256 253 256 260 261 261 260 258 258 259 258 257 256 254 251 250 249 246 243 241 240 240 242
341 336 334 338 347 351 345 339 340 341 343 345 344 340 341 343 340 336 335 334 331 329 327 328 327 324 321 320 320 316 311 309 308 309 309 307 302 294 280 262 247 241 237 231 236 242 237 228 235 244 246 249 252 251 253 256 256 253 250 250 254 258 260 261 264 267 272 275 272 267 265 264 260 256 254 252 251 251 250 247 243 240 239 241 244
344 341 339 342 349 351 345 338 338 343 346 349 347 343 344 347 347 345 345 343 338 333 329 329 331 333 330 329 331 329 322 315 313 315 317 317 313 302 281 262 248 236 232 231 232 235 234 228 229 237 243 248 253 257 258 260 259 257 255 254 255 257 259 261 262 265 270 274 271 270 271 273 269 262 257 255 253 251 251 250 245 239 238 242 246
346 343 342 347 353 352 346 341 343 348 350 351 350 348 349 351 351 350 351 350 349 350 347 343 343 347 346 345 344 340 334 329 322 316 317 321 320 308 284 273 272 259 246 242 239 236 233 230 230 235 242 247 251 253 254 257 259 258 255 254 253 253 254 257 262 266 267 264 263 264 268 274 275 272 268 268 267 264 262 263 261 256 252 251 253
349 348 349 353 354 351 347 347 351 353 353 354 355 353 353 355 356 356 355 354 355 360 3 3 5 7 3 358 353 343 332 331 330 325 326 331 328 317 299 289 289 282 268 261 257 252 246 240 239 242 247 251 254 253 252 253 254 255 256 258 259 256 254 255 260 264 264 263 264 264 266 268 269 268 266 266 265 262 263 265 267 267 266 264 263
354 353 354 354 353 350 350 352 355 355 353 355 356 355 356 360 2 2 1 358 357 2 7 9 13 14 5 360 360 358 351 351 352 348 344 342 331 315 305 301 299 295 286 281 277 271 262 256 251 249 249 251 253 251 249 248 246 242 242 250 257 257 255 254 256 258 261 264 266 266 267 269 270 268 265 262 261 262 264 264 262 261 262 263 263
357 357 356 355 355 354 354 357 360 358 355 355 356 358 0 2 3 5 4 1 2 6 8 7 12 14 8 3 6 15 24 25 20 16 14 14 11 5 357 351 347 339 325 310 297 285 277 273 264 256 252 253 252 249 245 244 243 237 236 243 251 255 255 255 259 264 265 268 273 276 276 278 279 276 272 270 270 270 270 269 264 259 257 259 261
0 360 358 357 358 358 359 2 3 359 358 359 358 359 3 3 3 4 6 5 6 9 9 8 10 12 11 9 11 19 31 35 30 25 23 24 28 33 35 31 28 24 16 7 355 328 301 294 283 269 265 262 253 243 237 240 240 228 219 223 233 247 249 244 260 271 272 275 286 291 288 286 286 283 275 270 272 272 271 268 265 262 260 262 265
5 4 2 0 2 2 4 7 5 1 2 3 1 2 4 4 2 3 6 8 9 10 10 10 10 10 12 14 17 22 30 35 33 29 25 22 24 32 37 37 34 32 27 23 27 35 41 43 47 52 57 66 82 94 96 94 91 91 94 100 98 87 79 78 68 11 325 297 298 305 306 302 296 287 276 271 271 270 267 265 264 264 264 266 267
11 11 8 5 5 7 8 8 6 4 5 6 4 4 6 4 4 5 7 9 11 11 11 11 11 12 14 17 20 23 28 30 31 30 28 25 24 28 33 35 36 35 33 32 38 45 48 47 48 49 49 49 53 59 66 72 74 72 70 69 67 62 55 46 34 17 3 346 329 323 322 319 311 300 292 286 279 272 267 267 269 269 267 268 269
20 19 16 14 13 12 11 9 8 8 8 8 7 7 7 7 6 6 6 8 11 13 12 12 13 15 17 19 21 24 25 26 26 26 26 26 24 25 29 32 34 35 38 41 45 48 48 45 45 44 41 39 42 47 52 58 61 61 57 52 46 41 36 28 20 14 6 353 340 329 320 314 307 300 297 296 291 283 276 273 273 271 269 270 272
26 23 22 22 20 18 16 14 12 11 10 10 10 10 10 10 10 9 8 8 10 12 13 12 13 16 18 20 23 24 23 22 21 20 21 23 22 23 27 30 30 31 37 41 44 45 44 43 43 43 40 37 38 43 46 51 54 51 47 43 38 31 26 21 15 9 3 352 341 333 325 318 310 300 293 291 292 290 285 280 276 274 273 273 273
27 25 26 26 23 21 20 17 15 12 10 11 12 11 10 9 11 12 11 8 8 10 12 11 12 15 17 20 22 24 24 22 20 18 18 20 20 21 24 26 26 27 31 35 37 38 39 39 40 39 37 36 37 40 42 46 50 47 40 35 32 25 19 15 11 7 1 352 342 335 328 321 314 307 299 293 290 289 286 282 278 275 273 272 273
31 30 30 29 26 25 21 16 14 13 10 10 12 11 8 7 9 12 12 11 10 11 12 12 12 15 19 21 21 22 23 23 22 20 19 19 20 20 22 25 27 27 27 29 32 32 34 37 36 33 31 32 34 37 39 41 44 43 37 30 25 19 13 9 8 5 0 352 344 337 332 325 318 312 306 300 295 290 286 283 280 275 271 270 271
35 35 34 32 32 30 24 17 15 15 12 10 12 13 9 7 9 12 14 14 15 14 14 13 14 16 19 21 22 22 22 22 21 21 21 20 21 22 22 23 26 28 28 30 32 31 32 35 30 25 25 27 29 30 33 35 34 34 31 25 20 16 10 6 5 4 359 354 348 342 336 329 322 318 315 308 302 296 290 287 284 280 274 270 268
37 38 37 36 37 35 28 23 21 19 14 13 16 15 7 2 5 10 13 15 16 16 14 11 11 14 18 20 21 22 22 20 19 20 19 18 20 23 23 22 23 24 26 28 31 31 31 32 26 19 19 22 23 24 26 26 24 23 23 18 14 12 9 5 4 2 358 355 352 348 342 334 329 328 325 319 313 307 298 291 288 287 283 279 273
38 38 38 40 42 37 27 22 23 21 15 12 14 11 2 360 4 8 11 14 17 19 17 13 12 14 16 19 21 22 21 19 18 17 16 15 15 18 22 23 23 23 23 24 26 27 28 29 25 18 15 16 16 18 20 19 16 14 13 11 10 9 8 6 5 2 358 357 357 354 349 342 335 331 329 327 325 321 310 298 294 295 294 290 282
40 38 38 41 41 32 20 16 19 20 15 11 8 4 1 2 5 7 8 11 16 19 20 18 17 18 18 17 19 20 21 20 17 15 13 12 11 12 15 17 18 20 22 23 23 25 26 25 22 16 11 9 10 13 14 13 10 8 8 9 10 9 7 5 4 3 2 1 1 360 356 349 340 333 330 329 328 323 314 307 305 304 302 299 294
47 44 43 42 39 28 15 12 16 18 14 10 6 1 358 359 0 1 4 10 16 19 20 19 20 21 21 20 21 20 18 18 16 13 11 10 9 9 11 11 10 12 15 15 14 17 19 19 18 17 13 8 8 11 13 11 9 9 12 13 12 10 7 4 3 4 5 6 7 7 3 353 341 332 328 327 325 321 315 311 310 309 305 300 296
Height
798 798 797 796 795 793 793 792 791 791 789 788 787 785 785 785 785 786 786 787 788 788 788 788 788 788 788 788 787 786 786 786 786 787 787 787 788 789 791 791 792 794 795 796 796 797 798 799 799 800 801 802 802 802 802 803 803 803 803 803 803 804 805 805 806 805 804 805 805 806 807 807 807 808 808 808 809 810 810 811 812 813 814 814 815
798 798 796 794 793 794 795 795 794 794 792 791 789 786 784 783 784 784 784 785 786 786 786 787 787 787 787 787 786 786 785 784 784 784 784 784 785 787 788 789 790 791 792 793 793 795 796 797 797 798 799 799 800 801 800 800 801 800 801 801 801 802 802 803 803 803 803 803 803 804 805 805 805 806 807 807 807 808 808 809 810 810 811 812 813
800 799 797 794 794 797 798 796 794 792 791 791 791 789 786 784 784 784 783 783 784 784 784 784 785 785 785 786 785 785 784 783 783 782 782 782 782 783 785 786 787 788 789 790 791 793 795 795 795 796 797 797 797 798 798 798 798 798 798 799 799 799 799 800 800 801 800 801 801 802 803 803 803 804 805 805 805 806 806 807 808 808 809 810 810
803 800 798 796 797 798 797 794 791 789 789 789 788 789 789 789 787 786 784 783 783 782 783 782 783 783 783 784 784 783 783 782 782 781 781 782 782 782 782 783 784 785 786 787 789 792 794 795 794 794 795 796 796 796 796 796 796 796 796 797 797 797 797 798 798 799 798 798 799 800 800 801 801 802 803 803 803 804 804 805 806 806 806 807 808
804 803 800 798 798 799 798 794 790 789 789 789 788 787 787 787 787 786 784 783 782 781 781 781 781 782 782 782 782 782 781 781 781 781 781 781 781 782 781 781 782 782 783 784 786 790 793 794 793 792 793 795 795 795 794 794 794 794 794 794 795 795 796 796 797 797 797 797 797 797 798 798 799 799 800 801 801 802 802 803 803 804 804 805 805
804 804 802 798 797 798 799 797 794 792 790 789 788 786 783 782 785 785 784 782 781 780 780 780 780 781 781 780 780 780 779 779 779 780 780 780 780 781 781 780 780 780 781 781 783 786 789 791 791 791 791 792 793 794 792 791 792 791 791 792 792 793 793 794 795 795 795 794 794 795 795 796 796 797 797 798 799 799 800 801 801 802 802 803 803
804 803 802 799 797 796 796 796 795 793 790 788 787 785 781 782 783 784 783 781 779 778 778 779 780 780 779 778 777 777 776 776 776 777 777 777 778 778 778 778 778 778 778 779 780 782 784 786 787 788 788 789 791 793 792 790 790 789 789 790 790 790 791 792 793 793 793 792 792 792 792 793 793 794 795 796 796 797 798 799 799 799 800 800 800
805 803 801 799 798 796 795 795 793 792 790 788 786 784 782 782 782 781 781 779 777 777 777 778 779 779 777 776 774 773 772 771 771 771 772 773 774 774 774 775 774 774 775 775 776 778 780 781 783 784 786 788 790 791 789 788 788 788 788 788 788 789 789 789 790 791 791 791 790 789 789 790 790 791 793 793 794 794 795 796 796 797 797 798 798
807 805 802 800 798 796 795 794 793 791 789 787 786 784 783 782 780 779 778 777 776 776 777 777 777 775 772 769 768 768 767 767 766 767 768 769 771 771 771 771 771 770 770 771 772 773 775 777 779 781 783 786 787 787 785 785 785 785 786 786 787 787 787 787 788 788 789 789 788 787 787 787 787 788 790 790 791 792 793 794 794 794 795 795 795
807 805 802 800 798 797 795 794 792 791 789 787 785 784 782 781 779 777 776 776 775 775 776 775 772 768 765 764 765 766 766 765 765 766 767 768 769 769 768 768 768 768 767 766 767 768 770 772 773 776 778 780 781 781 781 781 781 782 783 784 784 785 785 785 785 785 786 786 786 786 785 785 785 786 786 787 788 789 791 791 792 792 793 793 792
805 804 802 800 798 796 795 793 792 791 789 787 785 783 782 780 778 777 775 775 774 774 775 773 768 765 763 763 764 765 764 764 764 764 765 766 766 766 766 766 766 766 765 763 762 762 764 766 768 770 772 774 775 776 776 777 777 778 779 780 781 782 782 782 782 782 783 783 783 784 784 783 782 783 784 785 786 787 788 789 789 790 791 791 790
803 802 801 800 798 796 795 794 792 791 789 787 786 784 782 780 778 777 775 774 774 773 773 771 766 764 764 763 763 762 762 762 762 762 762 762 764 764 763 763 763 763 763 761 760 759 759 760 762 764 767 768 770 771 772 773 773 774 775 776 777 778 779 780 780 780 780 780 780 781 781 781 781 781 782 782 783 784 785 786 786 787 788 788 787
801 800 799 799 797 796 795 794 792 791 789 787 785 783 782 780 778 776 774 774 773 772 771 769 765 763 763 762 762 761 760 759 759 760 760 760 761 761 761 761 760 760 759 758 758 757 757 757 758 759 762 764 765 766 767 768 769 770 771 772 773 774 776 777 777 778 778 778 777 777 778 779 779 780 781 781 781 782 783 783 784 784 785 785 784
800 799 798 797 796 795 794 793 791 790 788 786 785 783 781 779 777 776 774 773 772 770 769 767 764 763 762 761 760 759 758 757 757 757 757 757 758 758 758 758 757 757 756 756 755 755 754 755 754 755 756 758 760 761 762 763 765 766 767 768 769 770 771 772 772 773 774 775 774 773 774 776 776 777 779 780 780 780 780 780 781 781 782 781 781
799 798 796 795 795 794 792 791 790 789 787 785 783 782 780 778 776 775 773 772 770 769 767 765 763 762 761 760 759 757 756 756 755 755 754 754 754 754 754 754 753 753 752 752 752 752 752 752 752 751 752 753 754 756 757 759 760 762 763 763 764 765 766 767 767 768 769 770 770 770 770 772 773 774 776 777 777 777 777 778 778 779 779 778 778
798 796 795 794 793 792 790 789 788 787 786 784 782 780 779 776 775 773 771 770 769 767 766 764 762 760 759 759 758 756 755 754 754 753 752 751 751 751 751 750 750 749 748 748 748 748 749 749 749 749 749 749 750 752 754 755 756 757 758 759 760 761 761 763 763 764 765 765 765 766 767 768 770 771 772 774 774 775 775 775 775 776 776 775 774
797 795 793 792 791 790 789 787 786 785 784 782 781 779 777 775 773 771 770 768 767 766 764 762 760 758 757 757 756 755 753 753 752 751 750 750 749 749 748 747 747 746 745 745 745 745 746 746 746 746 746 747 749 750 753 754 753 753 753 754 756 757 757 758 759 760 761 761 761 762 763 764 766 766 768 770 771 772 773 771 771 773 773 772 771
796 794 792 790 789 788 787 785 784 783 782 781 779 778 775 774 772 770 768 766 764 764 762 760 758 756 754 754 753 753 751 750 750 748 748 748 748 746 745 745 744 744 743 742 742 742 742 743 744 744 743 744 747 749 751 752 751 750 750 751 753 752 752 753 754 755 757 757 758 758 759 760 761 762 764 766 767 769 768 767 768 770 770 769 768
795 793 791 789 788 786 784 783 782 781 780 779 778 776 774 772 770 768 767 765 762 761 759 758 756 753 752 751 750 750 749 748 747 746 745 745 745 744 744 743 742 742 741 740 739 739 739 739 740 741 741 742 744 746 747 748 747 748 749 749 749 747 746 748 750 751 751 752 753 753 754 755 757 758 760 762 763 764 764 764 765 766 766 765 765
794 793 791 788 787 785 783 781 779 778 777 776 775 774 773 771 769 767 765 763 761 759 757 755 753 751 749 748 747 747 746 744 744 743 742 742 742 741 741 740 739 739 738 737 736 736 737 736 736 738 739 740 742 743 745 745 744 745 746 746 744 743 744 746 746 746 747 747 748 749 750 751 753 755 757 758 760 760 760 761 762 763 762 762 762
793 792 790 787 786 784 781 780 778 776 775 774 772 772 770 769 767 765 763 761 759 757 755 753 751 749 747 746 744 744 743 742 741 740 740 739 738 738 738 737 736 736 735 735 734 734 734 734 734 735 737 739 740 741 742 742 743 743 743 742 741 742 744 744 743 743 744 744 745 746 747 749 750 752 753 755 756 757 757 758 758 759 759 758 758
792 790 789 787 785 783 781 779 776 774 772 771 770 769 768 766 765 763 761 759 757 755 753 751 749 747 745 743 742 741 740 740 738 737 737 736 736 735 735 733 733 733 732 732 731 731 731 732 732 733 735 736 738 739 739 740 740 741 740 740 740 742 743 743 743 743 742 742 743 744 745 746 747 748 749 750 752 753 754 754 755 756 755 755 755
791 789 787 786 784 782 780 777 775 773 771 769 767 766 764 763 762 761 759 757 755 753 751 749 747 745 743 741 739 738 738 737 736 735 734 733 733 732 731 730 730 731 730 729 729 729 729 730 730 731 732 733 734 735 736 736 737 737 737 738 739 740 741 742 742 741 741 741 742 742 743 743 744 744 745 746 748 749 750 750 751 751 751 750 750
790 788 786 784 782 780 778 776 774 772 770 768 766 763 761 760 759 758 757 755 753 751 749 747 745 743 741 739 736 736 735 734 734 733 731 730 730 729 728 728 728 728 727 726 727 727 727 728 729 729 730 730 730 731 732 733 733 734 735 736 736 738 739 739 739 740 740 740 740 739 740 740 740 741 741 743 744 745 746 746 747 747 746 746 745
789 787 785 783 781 779 777 774 772 770 768 766 764 761 759 757 756 755 754 752 751 749 747 746 744 742 740 737 734 733 733 732 731 730 729 728 727 726 725 725 725 725 724 724 724 725 725 725 726 727 727 727 728 728 729 730 730 731 731 732 733 734 734 735 735 737 737 737 737 737 737 737 737 738 738 740 741 741 742 742 742 742 742 741 740
788 786 784 782 780 778 775 773 771 769 767 765 762 760 758 756 753 752 750 749 748 746 744 743 742 740 738 736 733 731 730 729 728 727 726 725 724 723 723 722 721 721 720 719 719 720 720 721 723 724 724 724 725 725 726 727 727 727 727 728 728 728 728 730 731 733 733 734 734 734 734 734 735 735 736 736 737 737 737 738 737 737 738 737 736
787 785 783 781 778 776 774 772 769 767 765 762 760 758 756 754 752 749 747 746 745 743 742 741 739 738 736 734 731 729 727 726 725 724 724 723 722 721 720 719 719 718 717 716 716 717 718 719 719 720 720 721 721 722 722 723 723 723 723 723 723 723 723 725 727 728 729 730 731 731 731 731 732 732 732 732 732 732 733 734 734 733 733 733 732
786 784 782 779 777 775 773 770 768 765 763 760 758 756 753 751 749 747 745 744 743 741 740 738 736 735 734 732 730 727 725 723 722 722 722 721 720 720 719 718 717 717 717 716 715 716 716 716 716 717 718 718 718 718 719 719 720 720 721 721 721 722 722 722 724 725 726 727 728 728 728 728 728 727 728 728 728 728 729 730 730 730 730 730 729
785 783 781 778 776 773 771 769 766 764 761 759 756 754 752 750 748 744 742 742 741 739 737 735 734 733 731 730 729 727 723 720 720 721 721 720 719 719 718 717 716 716 716 716 716 717 716 714 714 715 715 715 716 716 716 716 717 719 719 719 720 720 720 720 721 722 723 724 724 724 723 724 723 723 724 724 723 724 725 726 726 726 727 727 726
784 782 780 777 775 772 770 767 765 763 760 757 754 751 748 747 745 742 739 737 737 736 735 733 731 730 728 727 726 725 722 719 718 719 718 717 717 717 716 715 714 714 714 714 715 717 715 712 711 711 712 712 713 713 714 715 717 719 719 717 717 718 718 719 720 720 720 721 720 719 719 719 719 719 719 720 719 720 721 722 723 723 723 723 722
784 781 779 777 774 771 769 766 764 761 759 757 754 750 745 742 741 739 737 735 733 732 731 730 728 727 726 724 722 721 720 718 716 716 715 714 714 714 713 713 712 711 712 712 713 713 711 708 708 709 710 711 711 711 712 714 715 716 715 713 712 713 714 716 716 717 718 717 716 716 715 715 715 715 715 715 715 716 717 718 719 719 719 718 717
784 781 779 776 773 770 768 765 763 761 758 755 753 750 746 742 737 735 734 732 730 729 728 726 725 724 723 722 720 718 717 716 715 714 713 712 711 710 710 710 709 708 709 709 710 710 709 707 706 706 707 708 708 709 710 711 711 711 711 709 708 707 708 709 710 713 715 714 713 713 713 712 712 711 711 711 711 712 713 714 714 715 714 713 712
784 781 778 775 772 769 767 764 762 760 757 755 752 750 747 744 739 734 731 728 727 726 724 723 722 721 720 719 718 716 715 713 712 712 711 710 709 708 707 706 705 705 706 706 706 706 707 706 705 705 704 704 704 706 708 708 708 708 707 706 705 705 706 707 708 710 711 711 711 711 710 710 710 709 708 708 708 708 709 709 710 710 710 709 708
783 780 777 775 772 769 766 764 762 760 757 755 753 750 748 745 742 737 732 728 724 723 721 721 720 718 717 716 715 714 713 711 710 709 708 708 707 706 705 703 702 701 702 702 702 702 703 704 704 703 702 701 701 702 704 704 703 703 703 703 703 704 706 709 710 710 710 711 712 713 711 708 707 706 705 705 705 705 705 705 705 706 705 704 703
782 779 777 774 771 769 767 764 762 760 757 755 753 750 748 745 742 739 735 731 726 723 720 719 718 717 715 714 713 712 711 710 708 707 707 706 705 704 703 702 700 699 698 698 698 698 698 700 701 700 700 699 699 699 699 699 700 701 701 701 703 705 706 708 708 706 706 707 711 712 710 707 705 704 703 703 702 702 701 701 701 701 700 699 699
781 779 776 774 771 769 767 764 762 760 758 756 753 751 748 745 743 740 737 734 730 726 722 720 717 716 714 713 711 710 709 708 707 706 705 704 703 702 702 702 701 699 697 695 695 695 695 696 697 697 697 697 697 697 697 697 697 698 698 699 700 701 701 701 700 700 700 703 705 706 705 703 702 701 701 701 701 702 702 702 701 701 700 698 697
781 779 776 774 772 769 767 765 763 761 759 756 754 751 749 747 745 742 739 736 733 730 726 723 720 717 714 712 709 708 707 707 706 705 704 703 701 700 700 700 700 699 697 695 694 694 694 694 694 694 694 694 694 695 695 695 695 695 695 695 695 694 695 695 695 695 697 699 701 701 700 698 697 697 697 697 696 696 697 699 700 700 699 697 694
782 779 777 775 772 770 768 765 763 761 759 757 755 753 750 748 746 743 741 738 735 733 730 727 724 722 719 715 710 707 706 705 704 703 702 701 700 699 698 698 698 697 696 695 694 693 692 692 691 691 691 691 691 692 692 692 692 692 692 692 691 690 691 692 692 693 694 695 696 696 695 694 694 694 695 694 692 690 691 693 695 694 693 692 690
781 779 778 775 773 771 768 766 765 763 760 758 756 754 751 750 748 745 743 741 738 736 734 731 728 726 724 719 713 709 706 706 705 704 703 701 699 699 698 697 696 696 695 694 693 692 691 690 689 689 689 689 689 689 689 689 689 689 689 689 688 688 689 690 690 691 692 692 692 692 691 690 689 690 691 690 689 688 688 688 689 688 687 686 685
782 780 778 776 774 772 769 767 766 764 762 760 758 755 753 751 749 747 745 743 741 739 737 734 732 730 727 724 719 714 711 710 709 708 706 705 703 701 699 698 697 696 694 693 692 690 689 688 688 687 687 687 687 687 687 687 687 687 687 686 686 686 687 687 687 688 689 689 689 688 688 686 685 686 686 686 685 685 684 684 684 684 684 682 681
783 782 779 777 775 773 770 769 768 766 764 762 759 757 755 754 752 750 748 745 743 741 739 737 735 733 730 727 723 720 716 714 713 712 711 710 708 705 702 701 699 697 696 694 693 691 690 689 688 687 687 686 685 685 684 684 685 685 685 684 684 684 685 685 685 685 686 686 686 685 685 684 683 683 683 683 683 682 682 681 681 681 680 679 678
784 782 780 778 776 774 772 771 770 767 766 764 761 760 758 756 754 752 750 748 746 744 741 739 737 735 732 729 726 723 720 718 716 715 714 713 712 709 706 704 702 701 699 698 696 695 694 693 691 690 689 688 687 685 684 684 683 683 684 684 684 684 684 684 684 684 684 683 683 683 682 682 681 680 680 680 680 679 679 678 678 677 677 676 675
785 783 781 779 778 776 774 773 771 769 768 766 764 762 760 758 756 754 752 750 748 746 744 742 739 737 735 732 728 726 724 722 720 719 717 716 715 714 710 707 706 705 703 701 699 699 698 697 696 694 693 693 691 689 687 686 684 684 684 685 685 685 684 684 683 683 682 681 681 681 681 680 680 679 678 678 677 676 676 675 674 674 674 673 672
785 783 782 780 779 778 777 775 773 772 770 769 767 765 763 760 759 757 754 752 750 748 746 744 741 739 737 734 731 728 727 725 724 723 721 719 718 716 713 711 710 709 707 704 703 702 702 702 700 698 698 697 694 692 690 687 685 685 686 686 686 686 685 684 683 682 681 680 680 679 679 679 678 677 677 676 675 674 673 672 671 671 670 670 669
786 784 783 781 780 779 778 777 776 775 773 771 769 767 765 763 761 759 757 755 753 750 748 746 744 741 739 737 734 733 731 729 727 726 724 722 720 718 716 714 713 712 710 708 707 706 705 705 704 702 702 700 696 693 691 689 687 688 688 688 687 687 686 685 684 682 681 680 679 678 677 676 676 675 674 673 673 671 670 669 668 667 667 666 666
787 785 784 783 782 781 780 779 778 777 775 773 771 769 767 765 763 761 760 757 755 753 751 749 747 744 742 740 738 737 735 733 731 729 727 725 723 721 719 717 715 714 713 711 710 709 709 708 707 705 703 701 698 695 693 691 690 690 690 689 689 688 687 686 684 682 680 679 677 676 676 674 673 673 672 671 670 669 667 666 665 664 663 663 662
788 787 786 785 784 783 782 781 780 779 777 775 774 772 770 768 766 764 762 760 757 756 753 751 749 747 745 743 742 740 738 737 735 732 731 729 726 725 723 720 718 717 715 713 712 711 711 710 708 706 705 703 700 698 696 694 693 692 691 690 690 689 687 686 684 682 680 678 676 675 674 673 672 671 670 668 667 666 664 663 662 661 660 659 658
789 788 787 786 785 785 784 783 781 780 779 777 775 774 772 770 768 766 763 761 759 757 755 753 751 749 747 746 744 742 741 739 737 735 733 731 729 727 725 723 721 720 718 716 715 713 712 711 710 708 707 705 702 700 698 696 695 694 692 692 691 690 688 686 684 681 679 677 675 674 673 671 670 669 668 667 666 664 663 661 660 658 657 656 655
791 790 789 788 787 787 786 784 783 781 779 778 776 774 772 771 769 767 765 763 761 758 756 754 753 751 749 748 746 745 743 741 740 738 736 733 731 729 727 725 724 722 720 719 717 716 714 713 711 710 708 706 704 702 700 698 697 695 694 693 691 690 688 686 684 681 679 676 675 673 672 670 669 668 666 665 664 662 661 660 658 657 656 654 652
792 791 790 789 789 788 786 785 783 782 780 778 777 775 773 771 770 768 766 765 762 760 758 757 755 753 752 750 748 747 745 744 742 741 738 736 734 732 729 727 726 724 722 721 719 717 716 714 712 711 710 708 706 704 702 700 698 696 695 693 691 689 687 685 683 681 679 676 674 673 671 669 667 666 664 663 662 660 659 658 656 655 653 652 650
793 792 791 791 790 789 787 785 783 782 780 779 777 775 774 772 770 769 767 766 764 762 760 759 757 756 754 752 750 749 747 746 745 743 741 739 736 734 731 730 728 725 724 722 721 719 717 715 713 712 710 709 707 705 702 700 699 696 694 692 690 688 686 684 683 681 679 677 675 672 670 668 667 665 663 662 661 659 657 656 654 653 651 649 647